Monte Cimone, Italy

10:08 AM CEST on July 26, 2017 (GMT +0200)
Monte Cimone

Weather History for LIVC - September, 2014

Change the Weather History Date:

Wednesday, September 3, 2014

  Actual Average Record
Temperature  
Mean Temperature 41 °F -  
Max Temperature 44 °F 49 °F 64 °F (2011)
Min Temperature 38 °F 40 °F 33 °F (1999)
Degree Days  
Heating Degree Days 24    
Moisture  
Dew Point 41 °F    
Average Humidity 97    
Maximum Humidity 100    
Minimum Humidity 92    
Precipitation  
Precipitation 0.12 in 0.10 in - ()
Sea Level Pressure  
Sea Level Pressure 30.04 in    
Wind  
Wind Speed 29 mph ()    
Max Wind Speed 40 mph    
Max Gust Speed -    
Visibility 0.0 miles    
Events Fog , Rain    
Averages and records for this station are not official NWS values.
T = Trace of Precipitation, MM = Missing Value Source: Averaged Metar Reports

Daily Weather History Graph

Daily Weather History Graph

Search for Another Location

Airport or City:

Trip Planner

Search our weather history database for the weather conditions in past years. The results will help you decide how hot, cold, wet, or windy it might be!

Date:

Astronomy

Sep. 03, 2014 Rise Set
Actual Time 6:42 AM CEST 7:50 PM CEST
Civil Twilight 6:12 AM CEST 8:19 PM CEST
Nautical Twilight 5:36 AM CEST 8:55 PM CEST
Astronomical Twilight 4:59 AM CEST 9:32 PM CEST
Moon 3:23 PM CEST (9/3) 12:14 AM CEST (9/3)
Length of Visible Light 14h 07m
Length of Day
13h 07m
First Quarter, 61% of the Moon is Illuminated
Sep 3
First Quarter
Sep 9
Full
Sep 16
Last Quarter
Sep 24
New
Oct 1
First Quarter

Hourly Weather History & Observations

Time (CEST) Temp. Windchill Dew Point Humidity Pressure Visibility Wind Dir Wind Speed Gust Speed Precip Events Conditions
12:00 AM 40 °F - 40 °F 99%  in 0 mi NNE 40.3 mph - - Rain Light Rain
1:00 AM 40 °F - 39 °F 97%  in 0 mi NNE 36.8 mph - - Rain Light Rain
1:55 AM 39.2 °F 25.8 °F 39.2 °F 100% 29.98 in 0.0 mi NNE 40.3 mph - N/A Fog , Rain Light Rain
2:00 AM 40 °F - 39 °F 97%  in 0 mi NNE 40.3 mph - - Rain Light Rain
2:55 AM 39.2 °F 26.3 °F 39.2 °F 100% 29.98 in 0.0 mi NNE 36.8 mph - N/A Fog , Rain Light Rain
3:00 AM 40 °F - 39 °F 95%  in 0 mi NNE 36.8 mph - - Rain Light Rain
3:55 AM 39.2 °F 26.6 °F 39.2 °F 100% 29.98 in 0.0 mi NNE 34.5 mph - N/A Fog , Rain Light Rain
4:00 AM 40 °F - 39 °F 95%  in 0 mi NNE 34.5 mph - - Rain Light Rain
4:55 AM 39.2 °F 26.6 °F 39.2 °F 100% 30.01 in 0.0 mi NNE 34.5 mph - N/A Fog , Rain Light Rain
5:00 AM 40 °F - 39 °F 95%  in 0 mi NNE 34.5 mph - - Rain Light Rain
5:55 AM 39.2 °F 27.0 °F 39.2 °F 100% 30.01 in 0.0 mi NNE 32.2 mph - N/A Fog , Rain Light Rain
6:00 AM 40 °F - 39 °F 94%  in 0 mi NNE 32.2 mph - - Rain Light Rain
6:55 AM 39.2 °F 27.6 °F 39.2 °F 100% 30.01 in 0.0 mi NNE 28.8 mph - N/A Fog , Rain Light Rain
7:00 AM 40 °F - 39 °F 94%  in 0 mi NNE 28.8 mph - - Rain Light Rain
7:55 AM 39.2 °F 29.0 °F 39.2 °F 100% 30.01 in 0.0 mi North 21.9 mph - N/A Fog , Rain Light Rain
8:00 AM 38 °F - 38 °F 100%  in 0 mi North 21.9 mph - - Rain Light Rain
8:55 AM 39.2 °F 28.3 °F 39.2 °F 100% 30.01 in 0.0 mi North 25.3 mph - N/A Fog , Rain Light Rain
9:00 AM 39 °F - 39 °F 98%  in 0 mi North 25.3 mph - - Rain Light Rain
9:55 AM 41.0 °F 30.5 °F 41.0 °F 100% 30.01 in 0.0 mi NNE 26.5 mph - N/A Fog Fog
10:00 AM 41 °F - 40 °F 97%  in 0 mi NNE 26.5 mph - - Fog Heavy Fog
10:55 AM 41.0 °F 30.5 °F 41.0 °F 100% 30.04 in 0.0 mi NNE 26.5 mph - N/A Fog Fog
11:00 AM 41 °F - 41 °F 99%  in 0 mi NNE 26.5 mph - - Fog Heavy Fog
11:55 AM 41.0 °F 30.2 °F 41.0 °F 100% 30.04 in 0.0 mi NNE 27.6 mph - N/A Fog Fog
12:00 PM 42 °F - 41 °F 96%  in 0 mi NNE 27.6 mph - - Fog Heavy Fog
12:55 PM 42.8 °F 32.9 °F 42.8 °F 100% 30.04 in 0.0 mi NE 26.5 mph - N/A Fog Fog
1:00 PM 43 °F - 42 °F 96%  in 0 mi NE 26.5 mph - - Fog Heavy Fog
1:55 PM 42.8 °F 32.5 °F 42.8 °F 100% 30.04 in 0.0 mi NE 28.8 mph - N/A Fog , Rain Light Rain
2:00 PM 43 °F - 42 °F 95%  in 0 mi NE 28.8 mph - - Rain Light Rain
2:55 PM 42.8 °F 33.3 °F 42.8 °F 100% 30.06 in 0.0 mi NE 24.2 mph - N/A Fog , Rain Light Rain
3:00 PM 43 °F - 42 °F 95%  in 0 mi NE 24.2 mph - - Rain Light Rain
3:55 PM 42.8 °F 33.1 °F 42.8 °F 100% 30.06 in 0.0 mi NE 25.3 mph - N/A Fog , Rain Light Rain
4:00 PM 43 °F - 42 °F 95%  in 0 mi NE 25.3 mph - - Rain Light Rain
4:55 PM 42.8 °F 32.9 °F 41.0 °F 93% 30.06 in 0.0 mi NE 26.5 mph - N/A Fog , Rain Light Rain
5:00 PM 43 °F - 42 °F 92%  in 0 mi NE 26.5 mph - - Rain Light Rain
5:55 PM 42.8 °F 33.1 °F 41.0 °F 93% 30.06 in 0.0 mi NE 25.3 mph - N/A Fog , Rain Light Rain
6:00 PM 43 °F - 42 °F 92%  in 0 mi NE 25.3 mph - - Rain Light Rain
6:55 PM 42.8 °F 32.7 °F 41.0 °F 93% 30.06 in 0.0 mi NE 27.6 mph - N/A Fog , Rain Light Rain
7:00 PM 43 °F - 42 °F 92%  in 0 mi NE 27.6 mph - - Rain Light Rain
7:55 PM 42.8 °F 32.7 °F 41.0 °F 93% 30.09 in 0.0 mi NE 27.6 mph - N/A Fog , Rain Light Rain
8:00 PM 43 °F - 42 °F 92%  in 0 mi NE 27.6 mph - - Rain Light Rain
8:55 PM 42.8 °F 32.3 °F 42.8 °F 100% 30.09 in 0.0 mi ENE 29.9 mph - N/A Fog , Rain Light Rain
9:00 PM 43 °F - 42 °F 96%  in 0 mi ENE 29.9 mph - - Rain Light Rain
9:55 PM 44.6 °F 34.7 °F 44.6 °F 100% 30.09 in 0.0 mi NE 29.9 mph - N/A Fog , Rain Light Rain
10:00 PM 44 °F - 44 °F 99%  in 0 mi NE 29.9 mph - - Rain Light Rain
10:55 PM 42.8 °F 31.8 °F 42.8 °F 100% 30.06 in 0.0 mi NE 33.4 mph - N/A Fog , Rain Light Rain
11:00 PM 43 °F - 43 °F 100%  in 0 mi NE 33.4 mph - - Rain Light Rain
11:55 PM 42.8 °F 31.3 °F 42.8 °F 100% 30.06 in 0.0 mi NE 36.8 mph - N/A Fog , Rain Light Rain